Hourly Weather Gogotovo

Today, 17 May, Monday

Time Temperature Precipitation Wind Pressure Humidity
00:00 +13°C° 0 mm 1 mps 748 mmHg 92%
01:00 +13°C° 0 mm 1 mps 748 mmHg 92%
02:00 +12°C° 0 mm 0 mps 748 mmHg 92%
03:00 +13°C° 0 mm 1 mps 749 mmHg 91%
04:00 +14°C° 0 mm 1 mps 749 mmHg 91%
05:00 +14°C° 0 mm 1 mps 749 mmHg 90%
06:00 +16°C° 0 mm 1 mps 749 mmHg 84%
07:00 +18°C° 0 mm 2 mps 749 mmHg 78%
08:00 +19°C° 0 mm 2 mps 749 mmHg 73%
09:00 +21°C° 0 mm 2 mps 749 mmHg 66%
10:00 +22°C° 0 mm 3 mps 749 mmHg 60%
11:00 +24°C° 0 mm 3 mps 749 mmHg 54%
12:00 +25°C° 0 mm 3 mps 749 mmHg 53%
13:00 +25°C° 0 mm 4 mps 748 mmHg 52%
14:00 +26°C° 0 mm 4 mps 748 mmHg 51%
15:00 +26°C° 0 mm 4 mps 748 mmHg 56%
16:00 +25°C° 0 mm 4 mps 747 mmHg 62%
17:00 +25°C° 0 mm 5 mps 747 mmHg 67%
18:00 +22°C° 0.2 mm 4 mps 747 mmHg 75%
19:00 +21°C° 0.2 mm 4 mps 747 mmHg 82%
20:00 +19°C° 0.2 mm 4 mps 746 mmHg 90%
21:00 +18°C° 0 mm 4 mps 746 mmHg 91%
22:00 +18°C° 0 mm 4 mps 746 mmHg 92%
23:00 +18°C° 0 mm 4 mps 746 mmHg 94%

Tomorrow, 18 May, Tuesday

Time Temperature Precipitation Wind Pressure Humidity
00:00 +17°C° 0 mm 3 mps 746 mmHg 93%
01:00 +16°C° 0 mm 3 mps 746 mmHg 93%
02:00 +16°C° 0 mm 3 mps 746 mmHg 93%
03:00 +16°C° 0 mm 3 mps 746 mmHg 91%
04:00 +16°C° 0 mm 3 mps 746 mmHg 88%
05:00 +17°C° 0 mm 4 mps 746 mmHg 86%
06:00 +18°C° 0 mm 4 mps 746 mmHg 78%
07:00 +20°C° 0 mm 5 mps 746 mmHg 71%
08:00 +22°C° 0 mm 5 mps 746 mmHg 63%
09:00 +25°C° 0 mm 5 mps 746 mmHg 58%
10:00 +26°C° 0 mm 6 mps 746 mmHg 53%
11:00 +28°C° 0 mm 6 mps 746 mmHg 47%
12:00 +28°C° 0 mm 6 mps 746 mmHg 47%
13:00 +29°C° 0 mm 6 mps 745 mmHg 46%
14:00 +29°C° 0 mm 6 mps 745 mmHg 45%
15:00 +28°C° 0 mm 6 mps 745 mmHg 48%
16:00 +27°C° 0 mm 6 mps 745 mmHg 51%
17:00 +26°C° 0 mm 5 mps 745 mmHg 54%
18:00 +25°C° 0 mm 5 mps 745 mmHg 60%
19:00 +22°C° 0 mm 4 mps 745 mmHg 66%
20:00 +20°C° 0 mm 4 mps 745 mmHg 72%
21:00 +20°C° 0 mm 4 mps 745 mmHg 71%
22:00 +19°C° 0 mm 4 mps 745 mmHg 71%
23:00 +19°C° 0 mm 4 mps 745 mmHg 71%

Day after tomorrow, 19 May, Wednesday

Time Temperature Precipitation Wind Pressure Humidity
00:00 +18°C° 0 mm 4 mps 745 mmHg 75%
01:00 +17°C° 0 mm 3 mps 745 mmHg 80%
02:00 +17°C° 0 mm 3 mps 745 mmHg 85%
03:00 +17°C° 0 mm 3 mps 745 mmHg 84%
04:00 +17°C° 0 mm 3 mps 745 mmHg 83%
05:00 +17°C° 0 mm 3 mps 745 mmHg 82%
06:00 +19°C° 0 mm 4 mps 745 mmHg 75%
07:00 +21°C° 0 mm 4 mps 745 mmHg 69%
08:00 +22°C° 0 mm 5 mps 745 mmHg 63%
09:00 +23°C° 0 mm 5 mps 745 mmHg 59%
10:00 +26°C° 0 mm 5 mps 745 mmHg 54%
11:00 +27°C° 0 mm 5 mps 745 mmHg 50%
12:00 +27°C° 0 mm 5 mps 745 mmHg 50%
13:00 +27°C° 0 mm 4 mps 745 mmHg 49%
14:00 +27°C° 0 mm 4 mps 745 mmHg 49%
15:00 +27°C° 0 mm 4 mps 745 mmHg 51%
16:00 +27°C° 0 mm 4 mps 745 mmHg 53%
17:00 +26°C° 0 mm 4 mps 745 mmHg 55%
18:00 +23°C° 0 mm 4 mps 745 mmHg 63%
19:00 +22°C° 0 mm 3 mps 745 mmHg 70%
20:00 +20°C° 0 mm 2 mps 745 mmHg 77%
21:00 +19°C° 0.5 mm 2 mps 745 mmHg 81%
22:00 +18°C° 0.5 mm 2 mps 745 mmHg 85%
23:00 +18°C° 0.5 mm 2 mps 745 mmHg 89%

20 May, Thursday

Time Temperature Precipitation Wind Pressure Humidity
00:00 +17°C° 0.4 mm 2 mps 745 mmHg 91%
01:00 +17°C° 0.4 mm 2 mps 745 mmHg 93%
02:00 +17°C° 0.4 mm 2 mps 745 mmHg 95%
03:00 +17°C° 0.9 mm 2 mps 745 mmHg 95%
04:00 +17°C° 0.9 mm 2 mps 745 mmHg 94%
05:00 +17°C° 0.9 mm 2 mps 744 mmHg 94%
06:00 +19°C° 0 mm 3 mps 744 mmHg 88%
07:00 +20°C° 0 mm 4 mps 744 mmHg 83%
08:00 +21°C° 0 mm 4 mps 744 mmHg 77%
09:00 +22°C° 0 mm 5 mps 744 mmHg 71%
10:00 +23°C° 0 mm 6 mps 743 mmHg 66%
11:00 +24°C° 0 mm 6 mps 743 mmHg 60%
12:00 +24°C° 0.4 mm 7 mps 743 mmHg 64%
13:00 +24°C° 0.4 mm 7 mps 743 mmHg 68%
14:00 +23°C° 0.4 mm 7 mps 742 mmHg 71%
15:00 +22°C° 0.6 mm 7 mps 743 mmHg 75%
16:00 +21°C° 0.6 mm 6 mps 743 mmHg 80%
17:00 +20°C° 0.6 mm 6 mps 743 mmHg 84%
18:00 +19°C° 0 mm 5 mps 743 mmHg 85%
19:00 +17°C° 0 mm 5 mps 743 mmHg 87%
20:00 +17°C° 0 mm 4 mps 743 mmHg 88%
21:00 +15°C° 0 mm 4 mps 743 mmHg 89%
22:00 +14°C° 0 mm 4 mps 743 mmHg 91%
23:00 +14°C° 0 mm 4 mps 743 mmHg 92%

21 May, Friday

Time Temperature Precipitation Wind Pressure Humidity
00:00 +14°C° 0 mm 4 mps 743 mmHg 92%
01:00 +13°C° 0 mm 5 mps 743 mmHg 92%
02:00 +13°C° 0 mm 5 mps 743 mmHg 93%
03:00 +13°C° 0 mm 5 mps 743 mmHg 92%
04:00 +13°C° 0 mm 4 mps 743 mmHg 91%
05:00 +13°C° 0 mm 4 mps 743 mmHg 91%
06:00 +14°C° 0 mm 5 mps 743 mmHg 87%
07:00 +14°C° 0 mm 5 mps 743 mmHg 83%
08:00 +15°C° 0 mm 6 mps 743 mmHg 79%
09:00 +15°C° 0.3 mm 6 mps 743 mmHg 82%
10:00 +14°C° 0.3 mm 6 mps 742 mmHg 85%
11:00 +14°C° 0.3 mm 6 mps 742 mmHg 88%
12:00 +14°C° 1.1 mm 6 mps 742 mmHg 87%
13:00 +14°C° 1.1 mm 6 mps 742 mmHg 87%
14:00 +14°C° 1.1 mm 6 mps 742 mmHg 86%
15:00 +14°C° 0.3 mm 6 mps 742 mmHg 83%
16:00 +13°C° 0.3 mm 6 mps 741 mmHg 80%
17:00 +13°C° 0.3 mm 5 mps 741 mmHg 77%
18:00 +10°C° 0.1 mm 6 mps 742 mmHg 80%
19:00 +9°C° 0.1 mm 6 mps 742 mmHg 82%
20:00 +7°C° 0.1 mm 6 mps 742 mmHg 85%
21:00 +8°C° 0.1 mm 6 mps 742 mmHg 87%
22:00 +8°C° 0.1 mm 6 mps 742 mmHg 89%
23:00 +8°C° 0.1 mm 7 mps 742 mmHg 91%

22 May, Saturday

Time Temperature Precipitation Wind Pressure Humidity
00:00 +8°C° 0.1 mm 7 mps 743 mmHg 90%
01:00 +8°C° 0.1 mm 7 mps 743 mmHg 89%
02:00 +8°C° 0.1 mm 7 mps 744 mmHg 88%
03:00 +8°C° 0 mm 7 mps 744 mmHg 87%
04:00 +8°C° 0 mm 6 mps 745 mmHg 86%
05:00 +8°C° 0 mm 6 mps 745 mmHg 85%
06:00 +9°C° 0 mm 6 mps 745 mmHg 81%
07:00 +9°C° 0 mm 6 mps 746 mmHg 77%
08:00 +10°C° 0 mm 6 mps 746 mmHg 73%
09:00 +11°C° 0 mm 6 mps 747 mmHg 67%
10:00 +13°C° 0 mm 6 mps 747 mmHg 61%
11:00 +14°C° 0 mm 6 mps 747 mmHg 55%
12:00 +14°C° 0 mm 6 mps 747 mmHg 51%
13:00 +15°C° 0 mm 6 mps 748 mmHg 47%
14:00 +16°C° 0 mm 6 mps 748 mmHg 43%
15:00 +15°C° 0 mm 5 mps 748 mmHg 46%
16:00 +15°C° 0 mm 5 mps 748 mmHg 48%
17:00 +15°C° 0 mm 4 mps 748 mmHg 51%
18:00 +13°C° 0 mm 4 mps 749 mmHg 56%
19:00 +11°C° 0 mm 4 mps 749 mmHg 61%
20:00 +10°C° 0 mm 3 mps 750 mmHg 65%
21:00 +9°C° 0 mm 3 mps 750 mmHg 70%
22:00 +7°C° 0 mm 3 mps 750 mmHg 75%
23:00 +6°C° 0 mm 2 mps 750 mmHg 80%
Show more